Time,TemperatureF,DewpointF,PressureIn,WindDirection,WindDirectionDegrees,WindSpeedMPH,WindSpeedGustMPH,Humidity,HourlyPrecipIn,Conditions,Clouds,dailyrainin,SoftwareType,DateUTC
2013-08-12 00:00:00,72.7,69.3,30.05,North,0,0.0,0.0,89,0.00,,,0.00,WUHU216HW,2013-08-12 04:00:00,
2013-08-12 00:01:00,72.7,69.3,30.05,North,0,0.0,0.0,89,0.00,,,0.00,WUHU216HW,2013-08-12 04:01:00,
2013-08-12 00:04:00,72.5,69.1,30.05,North,0,0.0,0.0,89,0.00,,,0.00,WUHU216HW,2013-08-12 04:04:00,
2013-08-12 00:09:00,72.4,69.3,30.05,North,0,0.0,0.0,90,0.00,,,0.00,WUHU216HW,2013-08-12 04:09:00,
2013-08-12 00:14:00,72.7,69.7,30.05,North,0,0.0,0.0,90,0.00,,,0.00,WUHU216HW,2013-08-12 04:14:00,
2013-08-12 00:19:00,72.9,69.8,30.04,North,0,0.0,0.0,90,0.00,,,0.00,WUHU216HW,2013-08-12 04:19:00,
2013-08-12 00:24:00,72.9,69.8,30.04,North,0,0.0,0.0,90,0.00,,,0.00,WUHU216HW,2013-08-12 04:24:00,
2013-08-12 00:29:00,73.3,70.5,30.04,North,0,0.0,0.0,91,0.00,,,0.00,WUHU216HW,2013-08-12 04:29:00,
2013-08-12 00:34:00,73.1,69.7,30.04,North,0,0.0,0.0,89,0.00,,,0.00,WUHU216HW,2013-08-12 04:34:00,
2013-08-12 00:39:00,73.1,69.7,30.04,North,0,0.0,0.0,89,0.00,,,0.00,WUHU216HW,2013-08-12 04:39:00,
2013-08-12 00:44:00,72.7,69.3,30.05,North,0,0.0,0.0,89,0.00,,,0.00,WUHU216HW,2013-08-12 04:44:00,
2013-08-12 00:49:00,72.4,69.3,30.04,North,0,0.0,0.0,90,0.00,,,0.00,WUHU216HW,2013-08-12 04:49:00,
2013-08-12 00:54:00,72.4,69.3,30.04,North,0,0.0,0.0,90,0.00,,,0.00,WUHU216HW,2013-08-12 04:54:00,
2013-08-12 00:59:00,72.5,69.5,30.04,North,0,0.0,0.0,90,0.00,,,0.00,WUHU216HW,2013-08-12 04:59:00,
2013-08-12 01:04:00,72.7,69.7,30.04,North,0,0.0,0.0,90,0.00,,,0.00,WUHU216HW,2013-08-12 05:04:00,
2013-08-12 01:09:00,72.9,69.8,30.04,North,0,0.0,0.0,90,0.00,,,0.00,WUHU216HW,2013-08-12 05:09:00,
2013-08-12 01:14:00,72.7,69.7,30.04,North,0,0.0,0.0,90,0.00,,,0.00,WUHU216HW,2013-08-12 05:14:00,
2013-08-12 01:19:00,72.9,69.8,30.04,North,0,0.0,0.0,90,0.00,,,0.00,WUHU216HW,2013-08-12 05:19:00,
2013-08-12 01:24:00,72.9,69.8,30.04,North,0,0.0,0.0,90,0.00,,,0.00,WUHU216HW,2013-08-12 05:24:00,
2013-08-12 01:29:00,73.1,70.0,30.04,North,0,0.0,0.0,90,0.00,,,0.00,WUHU216HW,2013-08-12 05:29:00,
2013-08-12 01:34:00,72.7,69.7,30.04,North,0,0.0,0.0,90,0.00,,,0.00,WUHU216HW,2013-08-12 05:34:00,
2013-08-12 01:39:00,72.9,70.1,30.04,North,0,0.0,0.0,91,0.00,,,0.00,WUHU216HW,2013-08-12 05:39:00,
2013-08-12 01:44:00,72.9,69.8,30.04,North,0,0.0,0.0,90,0.00,,,0.00,WUHU216HW,2013-08-12 05:44:00,
2013-08-12 01:49:00,72.9,69.8,30.03,North,0,0.0,0.0,90,0.00,,,0.00,WUHU216HW,2013-08-12 05:49:00,
2013-08-12 01:54:00,72.7,69.7,30.04,North,0,0.0,0.0,90,0.00,,,0.00,WUHU216HW,2013-08-12 05:54:00,
2013-08-12 01:59:00,72.7,69.7,30.03,North,0,0.0,0.0,90,0.00,,,0.00,WUHU216HW,2013-08-12 05:59:00,
2013-08-12 02:04:00,72.7,69.7,30.04,North,0,0.0,0.0,90,0.00,,,0.00,WUHU216HW,2013-08-12 06:04:00,
2013-08-12 02:09:00,72.7,69.7,30.03,North,0,0.0,0.0,90,0.00,,,0.00,WUHU216HW,2013-08-12 06:09:00,
2013-08-12 02:14:00,72.5,69.5,30.03,North,0,0.0,0.0,90,0.00,,,0.00,WUHU216HW,2013-08-12 06:14:00,
2013-08-12 02:19:00,72.4,69.3,30.03,North,0,0.0,0.0,90,0.00,,,0.00,WUHU216HW,2013-08-12 06:19:00,
2013-08-12 02:24:00,72.4,69.3,30.03,North,0,0.0,0.0,90,0.00,,,0.00,WUHU216HW,2013-08-12 06:24:00,
2013-08-12 02:29:00,72.4,69.3,30.03,North,0,0.0,0.0,90,0.00,,,0.00,WUHU216HW,2013-08-12 06:29:00,
2013-08-12 02:51:00,72.2,69.4,30.03,North,0,0.0,0.0,91,0.00,,,0.00,WUHU216HW,2013-08-12 06:51:00,
2013-08-12 02:56:00,72.2,69.4,30.03,North,0,0.0,0.0,91,0.00,,,0.00,WUHU216HW,2013-08-12 06:56:00,
2013-08-12 03:01:00,72.0,69.2,30.02,North,0,0.0,0.0,91,0.00,,,0.00,WUHU216HW,2013-08-12 07:01:00,
2013-08-12 03:06:00,72.0,69.2,30.03,North,0,0.0,0.0,91,0.00,,,0.00,WUHU216HW,2013-08-12 07:06:00,
2013-08-12 03:11:00,72.0,69.2,30.03,North,0,0.0,0.0,91,0.00,,,0.00,WUHU216HW,2013-08-12 07:11:00,
2013-08-12 03:16:00,72.0,69.2,30.03,North,0,0.0,0.0,91,0.00,,,0.00,WUHU216HW,2013-08-12 07:16:00,
2013-08-12 03:21:00,72.0,69.2,30.02,North,0,0.0,0.0,91,0.00,,,0.00,WUHU216HW,2013-08-12 07:21:00,
2013-08-12 03:26:00,72.0,69.2,30.02,North,0,0.0,0.0,91,0.00,,,0.00,WUHU216HW,2013-08-12 07:26:00,
2013-08-12 03:31:00,72.2,69.4,30.02,North,0,0.0,0.0,91,0.00,,,0.00,WUHU216HW,2013-08-12 07:31:00,
2013-08-12 03:36:00,72.2,69.4,30.02,North,0,0.0,0.0,91,0.00,,,0.00,WUHU216HW,2013-08-12 07:36:00,
2013-08-12 03:41:00,72.2,69.4,30.02,North,0,0.0,0.0,91,0.00,,,0.00,WUHU216HW,2013-08-12 07:41:00,
2013-08-12 03:46:00,71.8,69.0,30.02,North,0,0.0,0.0,91,0.00,,,0.00,WUHU216HW,2013-08-12 07:46:00,
2013-08-12 03:51:00,71.8,69.0,30.02,North,0,0.0,0.0,91,0.00,,,0.00,WUHU216HW,2013-08-12 07:51:00,
2013-08-12 03:56:00,71.6,68.9,30.02,North,0,0.0,0.0,91,0.00,,,0.00,WUHU216HW,2013-08-12 07:56:00,
2013-08-12 04:01:00,71.5,68.7,30.02,North,0,0.0,0.0,91,0.00,,,0.00,WUHU216HW,2013-08-12 08:01:00,
2013-08-12 04:06:00,71.3,68.5,30.02,North,0,0.0,0.0,91,0.00,,,0.00,WUHU216HW,2013-08-12 08:06:00,
2013-08-12 04:11:00,71.3,68.5,30.02,North,0,0.0,0.0,91,0.00,,,0.00,WUHU216HW,2013-08-12 08:11:00,
2013-08-12 04:16:00,71.3,68.9,30.02,North,0,0.0,0.0,92,0.00,,,0.00,WUHU216HW,2013-08-12 08:16:00,
2013-08-12 04:21:00,71.5,68.7,30.02,North,0,0.0,0.0,91,0.00,,,0.00,WUHU216HW,2013-08-12 08:21:00,
2013-08-12 04:26:00,71.3,68.5,30.02,North,0,0.0,0.0,91,0.00,,,0.00,WUHU216HW,2013-08-12 08:26:00,
2013-08-12 04:31:00,71.1,68.7,30.02,North,0,0.0,0.0,92,0.00,,,0.00,WUHU216HW,2013-08-12 08:31:00,
2013-08-12 04:36:00,71.1,68.7,30.02,North,0,0.0,0.0,92,0.00,,,0.00,WUHU216HW,2013-08-12 08:36:00,
2013-08-12 04:41:00,71.1,68.7,30.03,North,0,0.0,0.0,92,0.00,,,0.00,WUHU216HW,2013-08-12 08:41:00,
2013-08-12 04:46:00,71.1,68.7,30.03,North,0,0.0,0.0,92,0.00,,,0.00,WUHU216HW,2013-08-12 08:46:00,
2013-08-12 04:51:00,71.3,68.9,30.03,North,0,0.0,0.0,92,0.00,,,0.00,WUHU216HW,2013-08-12 08:51:00,
2013-08-12 04:56:00,71.6,69.2,30.03,North,0,0.0,0.0,92,0.00,,,0.00,WUHU216HW,2013-08-12 08:56:00,
2013-08-12 05:01:00,71.6,69.2,30.03,North,0,0.0,0.0,92,0.00,,,0.00,WUHU216HW,2013-08-12 09:01:00,
2013-08-12 05:06:00,71.6,69.2,30.03,North,0,0.0,0.0,92,0.00,,,0.00,WUHU216HW,2013-08-12 09:06:00,
2013-08-12 05:11:00,71.5,69.0,30.03,North,0,0.0,0.0,92,0.00,,,0.00,WUHU216HW,2013-08-12 09:11:00,
2013-08-12 05:16:00,71.3,68.9,30.03,North,0,0.0,0.0,92,0.00,,,0.00,WUHU216HW,2013-08-12 09:16:00,
2013-08-12 05:21:00,71.3,68.9,30.03,North,0,0.0,0.0,92,0.00,,,0.00,WUHU216HW,2013-08-12 09:21:00,
2013-08-12 05:26:00,71.3,68.9,30.03,North,0,0.0,0.0,92,0.00,,,0.00,WUHU216HW,2013-08-12 09:26:00,
2013-08-12 05:31:00,71.3,68.9,30.03,North,0,0.0,0.0,92,0.00,,,0.00,WUHU216HW,2013-08-12 09:31:00,
2013-08-12 05:36:00,71.1,68.7,30.03,North,0,0.0,0.0,92,0.00,,,0.00,WUHU216HW,2013-08-12 09:36:00,
2013-08-12 05:41:00,71.1,68.7,30.03,North,0,0.0,0.0,92,0.00,,,0.00,WUHU216HW,2013-08-12 09:41:00,
2013-08-12 05:46:00,70.9,68.5,30.03,North,0,0.0,0.0,92,0.00,,,0.00,WUHU216HW,2013-08-12 09:46:00,
2013-08-12 05:51:00,70.9,68.5,30.03,North,0,0.0,0.0,92,0.00,,,0.00,WUHU216HW,2013-08-12 09:51:00,
2013-08-12 05:56:00,70.9,68.5,30.03,North,0,0.0,0.0,92,0.00,,,0.00,WUHU216HW,2013-08-12 09:56:00,
2013-08-12 06:01:00,70.9,68.5,30.03,North,0,0.0,0.0,92,0.00,,,0.00,WUHU216HW,2013-08-12 10:01:00,
2013-08-12 06:06:00,70.9,68.5,30.02,North,0,0.0,0.0,92,0.00,,,0.00,WUHU216HW,2013-08-12 10:06:00,
2013-08-12 06:11:00,70.9,68.5,30.03,North,0,0.0,0.0,92,0.00,,,0.00,WUHU216HW,2013-08-12 10:11:00,
2013-08-12 06:16:00,71.1,68.7,30.03,North,0,0.0,0.0,92,0.00,,,0.00,WUHU216HW,2013-08-12 10:16:00,
2013-08-12 06:21:00,71.1,68.7,30.03,North,0,0.0,0.0,92,0.00,,,0.00,WUHU216HW,2013-08-12 10:21:00,
2013-08-12 06:26:00,71.3,68.9,30.03,North,0,0.0,0.0,92,0.00,,,0.00,WUHU216HW,2013-08-12 10:26:00,
2013-08-12 06:31:00,71.5,69.0,30.03,North,0,0.0,0.0,92,0.00,,,0.00,WUHU216HW,2013-08-12 10:31:00,
2013-08-12 06:36:00,71.1,68.3,30.03,North,0,0.0,0.0,91,0.00,,,0.00,WUHU216HW,2013-08-12 10:36:00,
2013-08-12 06:41:00,70.7,68.3,30.03,North,0,0.0,0.0,92,0.00,,,0.00,WUHU216HW,2013-08-12 10:41:00,
2013-08-12 06:46:00,70.7,68.3,30.04,North,0,0.0,0.0,92,0.00,,,0.00,WUHU216HW,2013-08-12 10:46:00,
2013-08-12 06:51:00,70.7,68.3,30.04,North,0,0.0,0.0,92,0.00,,,0.00,WUHU216HW,2013-08-12 10:51:00,
2013-08-12 06:56:00,70.7,68.3,30.04,North,0,0.0,0.0,92,0.00,,,0.00,WUHU216HW,2013-08-12 10:56:00,
2013-08-12 07:01:00,70.6,68.1,30.04,North,0,0.0,0.0,92,0.00,,,0.00,WUHU216HW,2013-08-12 11:01:00,
2013-08-12 07:06:00,70.6,68.1,30.04,North,0,0.0,0.0,92,0.00,,,0.00,WUHU216HW,2013-08-12 11:06:00,
2013-08-12 07:11:00,70.6,68.1,30.04,North,0,0.0,0.0,92,0.00,,,0.00,WUHU216HW,2013-08-12 11:11:00,
2013-08-12 07:16:00,70.7,68.3,30.04,North,0,0.0,0.0,92,0.00,,,0.00,WUHU216HW,2013-08-12 11:16:00,
2013-08-12 07:21:00,70.7,68.3,30.04,North,0,0.0,0.0,92,0.00,,,0.00,WUHU216HW,2013-08-12 11:21:00,
2013-08-12 07:26:00,70.7,68.3,30.04,North,0,0.0,0.0,92,0.00,,,0.00,WUHU216HW,2013-08-12 11:26:00,
2013-08-12 07:31:00,70.7,68.3,30.04,North,0,0.0,0.0,92,0.00,,,0.00,WUHU216HW,2013-08-12 11:31:00,
2013-08-12 07:36:00,70.7,68.3,30.04,North,0,0.0,0.0,92,0.00,,,0.00,WUHU216HW,2013-08-12 11:36:00,
2013-08-12 07:41:00,70.9,68.5,30.04,North,0,0.0,0.0,92,0.00,,,0.00,WUHU216HW,2013-08-12 11:41:00,
2013-08-12 07:46:00,70.9,68.5,30.04,North,0,0.0,0.0,92,0.00,,,0.00,WUHU216HW,2013-08-12 11:46:00,
2013-08-12 07:51:00,70.9,68.5,30.04,North,0,0.0,0.0,92,0.00,,,0.00,WUHU216HW,2013-08-12 11:51:00,
2013-08-12 07:56:00,70.9,68.5,30.04,North,0,0.0,0.0,92,0.00,,,0.00,WUHU216HW,2013-08-12 11:56:00,
2013-08-12 08:01:00,71.3,68.9,30.05,North,0,0.0,0.0,92,0.00,,,0.00,WUHU216HW,2013-08-12 12:01:00,
2013-08-12 08:06:00,71.3,69.1,30.04,North,0,0.0,0.0,93,0.00,,,0.00,WUHU216HW,2013-08-12 12:06:00,
2013-08-12 08:11:00,71.3,69.1,30.04,North,0,0.0,0.0,93,0.00,,,0.00,WUHU216HW,2013-08-12 12:11:00,
2013-08-12 08:16:00,71.5,69.3,30.04,North,0,0.0,0.0,93,0.00,,,0.00,WUHU216HW,2013-08-12 12:16:00,
2013-08-12 08:21:00,71.5,69.3,30.04,North,0,0.0,0.0,93,0.00,,,0.00,WUHU216HW,2013-08-12 12:21:00,
2013-08-12 08:26:00,71.6,69.5,30.04,North,0,0.0,0.0,93,0.00,,,0.00,WUHU216HW,2013-08-12 12:26:00,
2013-08-12 08:31:00,71.8,69.7,30.04,North,0,0.0,0.0,93,0.00,,,0.00,WUHU216HW,2013-08-12 12:31:00,
2013-08-12 08:36:00,72.2,70.0,30.04,North,0,0.0,0.0,93,0.00,,,0.00,WUHU216HW,2013-08-12 12:36:00,
2013-08-12 08:41:00,72.5,70.4,30.04,North,0,0.0,0.0,93,0.00,,,0.00,WUHU216HW,2013-08-12 12:41:00,
2013-08-12 08:46:00,72.9,70.7,30.04,North,0,0.0,0.0,93,0.00,,,0.00,WUHU216HW,2013-08-12 12:46:00,
2013-08-12 08:51:00,73.1,70.9,30.04,North,0,0.0,0.0,93,0.00,,,0.00,WUHU216HW,2013-08-12 12:51:00,
2013-08-12 08:56:00,73.3,71.1,30.04,North,0,0.0,0.0,93,0.00,,,0.00,WUHU216HW,2013-08-12 12:56:00,
2013-08-12 09:01:00,73.6,71.8,30.04,North,0,0.0,0.0,94,0.00,,,0.00,WUHU216HW,2013-08-12 13:01:00,
2013-08-12 09:06:00,74.0,72.5,30.04,North,0,0.0,0.0,95,0.00,,,0.00,WUHU216HW,2013-08-12 13:06:00,
2013-08-12 09:11:00,74.3,72.6,30.04,North,0,0.0,0.0,94,0.00,,,0.00,WUHU216HW,2013-08-12 13:11:00,
2013-08-12 09:16:00,74.7,72.9,30.04,North,0,0.0,0.0,94,0.00,,,0.00,WUHU216HW,2013-08-12 13:16:00,
2013-08-12 09:21:00,75.1,72.9,30.05,North,0,0.0,0.0,93,0.00,,,0.00,WUHU216HW,2013-08-12 13:21:00,
2013-08-12 09:26:00,75.4,73.3,30.04,North,0,0.0,0.0,93,0.00,,,0.00,WUHU216HW,2013-08-12 13:26:00,
2013-08-12 09:31:00,75.8,73.4,30.04,North,0,0.0,0.0,92,0.00,,,0.00,WUHU216HW,2013-08-12 13:31:00,
2013-08-12 09:36:00,76.0,73.5,30.04,North,0,0.0,0.0,92,0.00,,,0.00,WUHU216HW,2013-08-12 13:36:00,
2013-08-12 09:41:00,76.3,73.9,30.04,North,0,0.0,0.0,92,0.00,,,0.00,WUHU216HW,2013-08-12 13:41:00,
2013-08-12 09:46:00,76.3,73.3,30.04,North,0,0.0,0.0,90,0.00,,,0.00,WUHU216HW,2013-08-12 13:46:00,
2013-08-12 09:51:00,76.7,73.9,30.04,North,0,0.0,0.0,91,0.00,,,0.00,WUHU216HW,2013-08-12 13:51:00,
2013-08-12 09:56:00,76.9,73.8,30.04,North,0,0.0,0.0,90,0.00,,,0.00,WUHU216HW,2013-08-12 13:56:00,
2013-08-12 10:01:00,77.0,74.0,30.04,North,0,0.0,0.0,90,0.00,,,0.00,WUHU216HW,2013-08-12 14:01:00,
2013-08-12 10:06:00,77.4,74.0,30.04,North,0,0.0,0.0,89,0.00,,,0.00,WUHU216HW,2013-08-12 14:06:00,
2013-08-12 10:11:00,77.6,73.8,30.04,North,0,0.0,0.0,88,0.00,,,0.00,WUHU216HW,2013-08-12 14:11:00,
2013-08-12 10:16:00,77.8,74.0,30.04,North,0,0.0,0.0,88,0.00,,,0.00,WUHU216HW,2013-08-12 14:16:00,
2013-08-12 10:21:00,78.1,74.0,30.04,North,0,0.0,0.0,87,0.00,,,0.00,WUHU216HW,2013-08-12 14:21:00,
2013-08-12 10:26:00,78.5,73.6,30.04,North,0,0.0,0.0,85,0.00,,,0.00,WUHU216HW,2013-08-12 14:26:00,
2013-08-12 10:31:00,78.8,74.0,30.04,North,0,0.0,0.0,85,0.00,,,0.00,WUHU216HW,2013-08-12 14:31:00,
2013-08-12 10:36:00,79.2,74.4,30.04,North,0,0.0,0.0,85,0.00,,,0.00,WUHU216HW,2013-08-12 14:36:00,
2013-08-12 10:41:00,79.6,74.7,30.04,North,0,0.0,0.0,85,0.00,,,0.00,WUHU216HW,2013-08-12 14:41:00,
2013-08-12 10:46:00,79.7,74.9,30.04,North,0,0.0,0.0,85,0.00,,,0.00,WUHU216HW,2013-08-12 14:46:00,
2013-08-12 10:51:00,80.1,74.8,30.04,North,0,0.0,0.0,84,0.00,,,0.00,WUHU216HW,2013-08-12 14:51:00,
2013-08-12 10:56:00,80.5,75.2,30.04,North,0,0.0,0.0,84,0.00,,,0.00,WUHU216HW,2013-08-12 14:56:00,
2013-08-12 11:01:00,81.0,75.3,30.04,North,0,0.0,0.0,83,0.00,,,0.00,WUHU216HW,2013-08-12 15:01:00,
2013-08-12 11:06:00,81.5,76.2,30.04,North,0,0.0,0.0,84,0.00,,,0.00,WUHU216HW,2013-08-12 15:06:00,
2013-08-12 11:11:00,81.7,76.4,30.04,North,0,0.0,0.0,84,0.00,,,0.00,WUHU216HW,2013-08-12 15:11:00,
2013-08-12 11:16:00,81.9,76.6,30.04,North,0,0.0,0.0,84,0.00,,,0.00,WUHU216HW,2013-08-12 15:16:00,
2013-08-12 11:21:00,81.9,75.6,30.04,North,0,0.0,0.0,81,0.00,,,0.00,WUHU216HW,2013-08-12 15:21:00,
2013-08-12 11:26:00,81.7,76.1,30.04,North,0,0.0,0.0,83,0.00,,,0.00,WUHU216HW,2013-08-12 15:26:00,
2013-08-12 11:31:00,81.4,76.1,30.04,North,0,0.0,0.0,84,0.00,,,0.00,WUHU216HW,2013-08-12 15:31:00,
2013-08-12 11:36:00,81.0,75.7,30.04,North,0,0.0,0.0,84,0.00,,,0.00,WUHU216HW,2013-08-12 15:36:00,
2013-08-12 11:41:00,81.0,76.1,30.04,North,0,0.0,0.0,85,0.00,,,0.00,WUHU216HW,2013-08-12 15:41:00,
2013-08-12 11:46:00,81.4,76.1,30.04,North,0,0.0,0.0,84,0.00,,,0.00,WUHU216HW,2013-08-12 15:46:00,
2013-08-12 11:51:00,81.9,75.6,30.04,North,0,0.0,0.0,81,0.00,,,0.00,WUHU216HW,2013-08-12 15:51:00,
2013-08-12 11:56:00,82.4,76.5,30.04,North,0,0.0,0.0,82,0.00,,,0.00,WUHU216HW,2013-08-12 15:56:00,
2013-08-12 12:01:00,83.0,77.0,30.04,North,0,0.0,0.0,82,0.00,,,0.00,WUHU216HW,2013-08-12 16:01:00,
2013-08-12 12:06:00,83.0,77.0,30.04,North,0,0.0,0.0,82,0.00,,,0.00,WUHU216HW,2013-08-12 16:06:00,
2013-08-12 12:11:00,82.8,75.7,30.04,North,0,0.0,0.0,79,0.00,,,0.00,WUHU216HW,2013-08-12 16:11:00,
2013-08-12 12:16:00,83.3,76.2,30.04,North,0,0.0,0.0,79,0.00,,,0.00,WUHU216HW,2013-08-12 16:16:00,
2013-08-12 12:21:00,84.1,77.6,30.03,North,0,0.0,0.0,81,0.00,,,0.00,WUHU216HW,2013-08-12 16:21:00,
2013-08-12 12:26:00,84.2,76.2,30.03,North,0,0.0,0.0,77,0.00,,,0.00,WUHU216HW,2013-08-12 16:26:00,
2013-08-12 12:31:00,84.2,76.2,30.03,North,0,0.0,0.0,77,0.00,,,0.00,WUHU216HW,2013-08-12 16:31:00,
2013-08-12 12:53:00,85.7,75.7,30.01,North,0,0.0,0.0,72,0.00,,,0.00,WUHU216HW,2013-08-12 16:53:00,
2013-08-12 12:58:00,85.1,75.5,30.01,North,0,0.0,0.0,73,0.00,,,0.00,WUHU216HW,2013-08-12 16:58:00,
2013-08-12 13:03:00,85.0,76.5,30.01,North,0,0.0,0.0,76,0.00,,,0.00,WUHU216HW,2013-08-12 17:03:00,
2013-08-12 13:08:00,85.7,77.2,30.01,North,0,0.0,0.0,76,0.00,,,0.00,WUHU216HW,2013-08-12 17:08:00,
2013-08-12 13:13:00,85.9,77.9,30.01,North,0,0.0,0.0,77,0.00,,,0.00,WUHU216HW,2013-08-12 17:13:00,
2013-08-12 13:18:00,86.0,77.2,30.01,North,0,0.0,0.0,75,0.00,,,0.00,WUHU216HW,2013-08-12 17:18:00,
2013-08-12 13:23:00,86.0,76.1,30.00,North,0,0.0,0.0,72,0.00,,,0.00,WUHU216HW,2013-08-12 17:23:00,
2013-08-12 13:28:00,86.0,76.1,30.01,North,0,0.0,0.0,72,0.00,,,0.00,WUHU216HW,2013-08-12 17:28:00,
2013-08-12 13:33:00,86.2,76.2,30.00,North,0,0.0,0.0,72,0.00,,,0.00,WUHU216HW,2013-08-12 17:33:00,
2013-08-12 13:38:00,86.6,75.7,30.00,North,0,0.0,0.0,70,0.00,,,0.00,WUHU216HW,2013-08-12 17:38:00,
2013-08-12 13:43:00,86.9,76.5,29.99,North,0,0.0,0.0,71,0.00,,,0.00,WUHU216HW,2013-08-12 17:43:00,
2013-08-12 13:48:00,86.2,76.6,29.99,North,0,0.0,0.0,73,0.00,,,0.00,WUHU216HW,2013-08-12 17:48:00,
2013-08-12 13:53:00,85.9,76.2,29.99,North,0,0.0,0.0,73,0.00,,,0.00,WUHU216HW,2013-08-12 17:53:00,
2013-08-12 13:58:00,85.5,75.9,29.99,North,0,0.0,0.0,73,0.00,,,0.00,WUHU216HW,2013-08-12 17:58:00,
2013-08-12 14:03:00,86.0,77.2,29.99,North,0,0.0,0.0,75,0.00,,,0.00,WUHU216HW,2013-08-12 18:03:00,
2013-08-12 14:08:00,86.0,75.6,29.99,North,0,0.0,0.0,71,0.00,,,0.00,WUHU216HW,2013-08-12 18:08:00,
2013-08-12 14:13:00,85.7,76.5,29.99,North,0,0.0,0.0,74,0.00,,,0.00,WUHU216HW,2013-08-12 18:13:00,
2013-08-12 14:18:00,84.8,75.6,29.99,North,0,0.0,0.0,74,0.00,,,0.00,WUHU216HW,2013-08-12 18:18:00,
2013-08-12 14:23:00,83.9,75.1,29.99,North,0,0.0,0.0,75,0.00,,,0.00,WUHU216HW,2013-08-12 18:23:00,
2013-08-12 14:28:00,83.2,75.6,29.99,North,0,0.0,0.0,78,0.00,,,0.00,WUHU216HW,2013-08-12 18:28:00,
2013-08-12 14:33:00,82.4,75.3,29.99,North,0,0.0,0.0,79,0.00,,,0.00,WUHU216HW,2013-08-12 18:33:00,
2013-08-12 14:38:00,81.4,75.1,29.99,North,0,0.0,0.0,81,0.00,,,0.00,WUHU216HW,2013-08-12 18:38:00,
2013-08-12 14:43:00,81.0,75.1,29.98,North,0,0.0,0.0,82,0.00,,,0.00,WUHU216HW,2013-08-12 18:43:00,
2013-08-12 14:48:00,80.5,74.2,29.98,North,0,0.0,0.0,81,0.00,,,0.00,WUHU216HW,2013-08-12 18:48:00,
2013-08-12 14:53:00,80.1,74.5,29.98,North,0,0.0,0.0,83,0.00,,,0.00,WUHU216HW,2013-08-12 18:53:00,
2013-08-12 14:58:00,79.9,74.7,29.98,North,0,0.0,0.0,84,0.00,,,0.00,WUHU216HW,2013-08-12 18:58:00,
2013-08-12 15:03:00,80.1,75.2,29.98,North,0,0.0,0.0,85,0.00,,,0.00,WUHU216HW,2013-08-12 19:03:00,
2013-08-12 15:08:00,79.7,74.5,29.98,North,0,0.0,0.0,84,0.00,,,0.00,WUHU216HW,2013-08-12 19:08:00,
2013-08-12 15:13:00,79.4,74.5,29.98,North,0,0.0,0.0,85,0.00,,,0.00,WUHU216HW,2013-08-12 19:13:00,
2013-08-12 15:18:00,78.8,74.0,29.97,North,0,0.0,0.0,85,0.00,,,0.00,WUHU216HW,2013-08-12 19:18:00,
2013-08-12 15:23:00,79.2,75.1,29.97,North,0,0.0,0.0,87,0.00,,,0.00,WUHU216HW,2013-08-12 19:23:00,
2013-08-12 15:28:00,79.9,75.0,29.97,North,0,0.0,0.0,85,0.00,,,0.00,WUHU216HW,2013-08-12 19:28:00,
2013-08-12 15:33:00,80.6,75.3,29.96,North,0,0.0,0.0,84,0.00,,,0.00,WUHU216HW,2013-08-12 19:33:00,
2013-08-12 15:38:00,81.4,76.1,29.96,North,0,0.0,0.0,84,0.00,,,0.00,WUHU216HW,2013-08-12 19:38:00,
2013-08-12 15:43:00,81.7,75.8,29.96,North,0,0.0,0.0,82,0.00,,,0.00,WUHU216HW,2013-08-12 19:43:00,
2013-08-12 15:48:00,82.3,74.8,29.96,North,0,0.0,0.0,78,0.00,,,0.00,WUHU216HW,2013-08-12 19:48:00,
2013-08-12 15:53:00,82.6,75.5,29.96,North,0,0.0,0.0,79,0.00,,,0.00,WUHU216HW,2013-08-12 19:53:00,
2013-08-12 15:58:00,82.6,76.0,29.96,North,0,0.0,0.0,80,0.00,,,0.00,WUHU216HW,2013-08-12 19:58:00,
2013-08-12 16:03:00,83.0,75.1,29.96,North,0,0.0,0.0,77,0.00,,,0.00,WUHU216HW,2013-08-12 20:03:00,
2013-08-12 16:08:00,83.2,75.3,29.96,North,0,0.0,0.0,77,0.00,,,0.00,WUHU216HW,2013-08-12 20:08:00,
2013-08-12 16:13:00,83.2,75.6,29.97,North,0,0.0,0.0,78,0.00,,,0.00,WUHU216HW,2013-08-12 20:13:00,
2013-08-12 16:18:00,83.0,75.9,29.96,North,0,0.0,0.0,79,0.00,,,0.00,WUHU216HW,2013-08-12 20:18:00,
2013-08-12 16:23:00,82.8,75.7,29.96,North,0,0.0,0.0,79,0.00,,,0.00,WUHU216HW,2013-08-12 20:23:00,
2013-08-12 16:28:00,82.4,75.3,29.96,North,0,0.0,0.0,79,0.00,,,0.00,WUHU216HW,2013-08-12 20:28:00,
2013-08-12 16:33:00,81.9,75.6,29.96,North,0,0.0,0.0,81,0.00,,,0.00,WUHU216HW,2013-08-12 20:33:00,
2013-08-12 16:38:00,81.2,74.9,29.97,North,0,0.0,0.0,81,0.00,,,0.00,WUHU216HW,2013-08-12 20:38:00,
2013-08-12 16:43:00,81.0,74.7,29.97,North,0,0.0,0.0,81,0.00,,,0.00,WUHU216HW,2013-08-12 20:43:00,
2013-08-12 16:48:00,81.0,74.7,29.97,North,0,0.0,0.0,81,0.00,,,0.00,WUHU216HW,2013-08-12 20:48:00,
2013-08-12 17:00:00,77.0,72.5,29.98,North,0,0.0,0.0,86,0.00,,,0.00,WUHU216HW,2013-08-12 21:00:00,
2013-08-12 17:05:00,76.1,71.6,29.97,North,0,0.0,0.0,86,0.00,,,0.00,WUHU216HW,2013-08-12 21:05:00,
2013-08-12 17:10:00,75.6,71.5,29.97,North,0,0.0,0.0,87,0.00,,,0.00,WUHU216HW,2013-08-12 21:10:00,
2013-08-12 17:15:00,75.4,72.0,29.97,North,0,0.0,0.0,89,0.00,,,0.00,WUHU216HW,2013-08-12 21:15:00,
2013-08-12 17:19:00,75.4,71.6,29.97,North,0,0.0,0.0,88,0.00,,,0.00,WUHU216HW,2013-08-12 21:19:00,
2013-08-12 17:24:00,75.6,71.8,29.97,North,0,0.0,0.0,88,0.00,,,0.00,WUHU216HW,2013-08-12 21:24:00,
2013-08-12 17:29:00,75.6,71.5,29.97,North,0,0.0,0.0,87,0.00,,,0.00,WUHU216HW,2013-08-12 21:29:00,
2013-08-12 17:34:00,75.6,71.5,29.96,North,0,0.0,0.0,87,0.00,,,0.00,WUHU216HW,2013-08-12 21:34:00,
2013-08-12 17:39:00,74.7,70.9,29.96,North,0,0.0,0.0,88,0.00,,,0.00,WUHU216HW,2013-08-12 21:39:00,
2013-08-12 17:44:00,74.0,70.6,29.95,North,0,0.0,0.0,89,0.00,,,0.00,WUHU216HW,2013-08-12 21:44:00,
2013-08-12 17:50:00,73.8,70.7,29.96,North,0,0.0,0.0,90,0.00,,,0.00,WUHU216HW,2013-08-12 21:50:00,
2013-08-12 17:55:00,74.0,71.6,29.96,North,0,0.0,0.0,92,0.00,,,0.00,WUHU216HW,2013-08-12 21:55:00,
2013-08-12 18:00:00,74.3,71.9,29.95,North,0,0.0,0.0,92,0.00,,,0.00,WUHU216HW,2013-08-12 22:00:00,
2013-08-12 18:05:00,74.2,71.4,29.95,North,0,0.0,0.0,91,0.00,,,0.00,WUHU216HW,2013-08-12 22:05:00,
2013-08-12 18:10:00,73.8,71.0,29.96,North,0,0.0,0.0,91,0.00,,,0.00,WUHU216HW,2013-08-12 22:10:00,
2013-08-12 18:16:00,74.0,71.6,29.96,North,0,0.0,0.0,92,0.00,,,0.00,WUHU216HW,2013-08-12 22:16:00,
2013-08-12 18:21:00,74.0,71.6,29.96,North,0,0.0,0.0,92,0.00,,,0.00,WUHU216HW,2013-08-12 22:21:00,
2013-08-12 18:26:00,74.2,71.7,29.96,North,0,0.0,0.0,92,0.00,,,0.00,WUHU216HW,2013-08-12 22:26:00,
2013-08-12 18:31:00,74.5,72.1,29.96,North,0,0.0,0.0,92,0.00,,,0.00,WUHU216HW,2013-08-12 22:31:00,
2013-08-12 18:36:00,74.9,72.5,29.96,North,0,0.0,0.0,92,0.00,,,0.00,WUHU216HW,2013-08-12 22:36:00,
2013-08-12 18:41:00,75.1,72.3,29.96,North,0,0.0,0.0,91,0.00,,,0.00,WUHU216HW,2013-08-12 22:41:00,
2013-08-12 18:46:00,74.9,72.1,29.96,North,0,0.0,0.0,91,0.00,,,0.00,WUHU216HW,2013-08-12 22:46:00,
2013-08-12 18:51:00,74.9,72.5,29.96,North,0,0.0,0.0,92,0.00,,,0.00,WUHU216HW,2013-08-12 22:51:00,
2013-08-12 18:56:00,75.2,72.5,29.96,North,0,0.0,0.0,91,0.00,,,0.00,WUHU216HW,2013-08-12 22:56:00,
2013-08-12 19:01:00,74.9,72.1,29.95,North,0,0.0,0.0,91,0.00,,,0.00,WUHU216HW,2013-08-12 23:01:00,
2013-08-12 19:06:00,74.7,71.9,29.95,North,0,0.0,0.0,91,0.00,,,0.00,WUHU216HW,2013-08-12 23:06:00,
2013-08-12 19:11:00,74.9,72.1,29.95,North,0,0.0,0.0,91,0.00,,,0.00,WUHU216HW,2013-08-12 23:11:00,
2013-08-12 19:16:00,74.7,72.3,29.94,North,0,0.0,0.0,92,0.00,,,0.00,WUHU216HW,2013-08-12 23:16:00,
2013-08-12 19:21:00,74.9,72.5,29.94,North,0,0.0,0.0,92,0.00,,,0.00,WUHU216HW,2013-08-12 23:21:00,
2013-08-12 19:26:00,74.7,72.3,29.94,North,0,0.0,0.0,92,0.00,,,0.00,WUHU216HW,2013-08-12 23:26:00,
2013-08-12 19:31:00,74.9,72.5,29.94,North,0,0.0,0.0,92,0.00,,,0.00,WUHU216HW,2013-08-12 23:31:00,
2013-08-12 19:36:00,75.2,72.8,29.94,North,0,0.0,0.0,92,0.00,,,0.00,WUHU216HW,2013-08-12 23:36:00,
2013-08-12 19:41:00,75.6,73.2,29.94,North,0,0.0,0.0,92,0.00,,,0.00,WUHU216HW,2013-08-12 23:41:00,
2013-08-12 19:46:00,75.8,73.4,29.94,North,0,0.0,0.0,92,0.00,,,0.00,WUHU216HW,2013-08-12 23:46:00,
2013-08-12 19:51:00,76.0,73.5,29.94,North,0,0.0,0.0,92,0.00,,,0.00,WUHU216HW,2013-08-12 23:51:00,
2013-08-12 19:56:00,76.0,73.5,29.94,North,0,0.0,0.0,92,0.00,,,0.00,WUHU216HW,2013-08-12 23:56:00,
2013-08-12 20:01:00,76.0,73.2,29.94,North,0,0.0,0.0,91,0.00,,,0.00,WUHU216HW,2013-08-13 00:01:00,
2013-08-12 20:06:00,75.8,73.0,29.94,North,0,0.0,0.0,91,0.00,,,0.00,WUHU216HW,2013-08-13 00:06:00,
2013-08-12 20:11:00,75.8,73.0,29.93,North,0,0.0,0.0,91,0.00,,,0.00,WUHU216HW,2013-08-13 00:11:00,
2013-08-12 20:16:00,75.1,72.3,29.94,North,0,0.0,0.0,91,0.00,,,0.00,WUHU216HW,2013-08-13 00:16:00,
2013-08-12 20:21:00,74.5,71.7,29.94,North,0,0.0,0.0,91,0.00,,,0.00,WUHU216HW,2013-08-13 00:21:00,
2013-08-12 20:26:00,74.2,71.4,29.94,North,0,0.0,0.0,91,0.00,,,0.00,WUHU216HW,2013-08-13 00:26:00,
2013-08-12 20:31:00,73.8,71.4,29.94,North,0,0.0,0.0,92,0.00,,,0.00,WUHU216HW,2013-08-13 00:31:00,
2013-08-12 20:36:00,73.8,71.4,29.94,North,0,0.0,0.0,92,0.00,,,0.00,WUHU216HW,2013-08-13 00:36:00,
2013-08-12 20:41:00,73.8,71.4,29.94,North,0,0.0,0.0,92,0.00,,,0.00,WUHU216HW,2013-08-13 00:41:00,
2013-08-12 20:46:00,73.8,71.4,29.95,North,0,0.0,0.0,92,0.00,,,0.00,WUHU216HW,2013-08-13 00:46:00,
2013-08-12 20:51:00,73.8,71.4,29.94,North,0,0.0,0.0,92,0.00,,,0.00,WUHU216HW,2013-08-13 00:51:00,
2013-08-12 20:56:00,73.8,71.4,29.94,North,0,0.0,0.0,92,0.00,,,0.00,WUHU216HW,2013-08-13 00:56:00,
2013-08-12 21:01:00,73.8,71.4,29.95,North,0,0.0,0.0,92,0.00,,,0.00,WUHU216HW,2013-08-13 01:01:00,
2013-08-12 21:06:00,73.4,71.0,29.95,North,0,0.0,0.0,92,0.00,,,0.00,WUHU216HW,2013-08-13 01:06:00,
2013-08-12 21:11:00,73.4,71.0,29.95,North,0,0.0,0.0,92,0.00,,,0.00,WUHU216HW,2013-08-13 01:11:00,
2013-08-12 21:16:00,73.4,71.3,29.95,North,0,0.0,0.0,93,0.00,,,0.00,WUHU216HW,2013-08-13 01:16:00,
2013-08-12 21:21:00,73.6,71.5,29.95,North,0,0.0,0.0,93,0.00,,,0.00,WUHU216HW,2013-08-13 01:21:00,
2013-08-12 21:26:00,73.4,71.3,29.95,North,0,0.0,0.0,93,0.00,,,0.00,WUHU216HW,2013-08-13 01:26:00,
2013-08-12 21:31:00,73.4,71.3,29.96,North,0,0.0,0.0,93,0.00,,,0.00,WUHU216HW,2013-08-13 01:31:00,
2013-08-12 21:36:00,73.6,71.5,29.95,North,0,0.0,0.0,93,0.00,,,0.00,WUHU216HW,2013-08-13 01:36:00,
2013-08-12 21:41:00,73.8,71.6,29.95,North,0,0.0,0.0,93,0.00,,,0.00,WUHU216HW,2013-08-13 01:41:00,
2013-08-12 21:46:00,73.6,71.5,29.94,North,0,0.0,0.0,93,0.00,,,0.00,WUHU216HW,2013-08-13 01:46:00,
2013-08-12 21:51:00,73.4,71.0,29.94,North,0,0.0,0.0,92,0.00,,,0.00,WUHU216HW,2013-08-13 01:51:00,
2013-08-12 21:56:00,73.3,70.8,29.95,North,0,0.0,0.0,92,0.00,,,0.00,WUHU216HW,2013-08-13 01:56:00,
2013-08-12 22:01:00,73.1,70.3,29.95,North,0,0.0,0.0,91,0.00,,,0.00,WUHU216HW,2013-08-13 02:01:00,
2013-08-12 22:06:00,72.9,70.5,29.95,North,0,0.0,0.0,92,0.00,,,0.00,WUHU216HW,2013-08-13 02:06:00,
2013-08-12 22:11:00,72.7,70.3,29.95,North,0,0.0,0.0,92,0.00,,,0.00,WUHU216HW,2013-08-13 02:11:00,
2013-08-12 22:16:00,72.5,70.1,29.95,North,0,0.0,0.0,92,0.00,,,0.00,WUHU216HW,2013-08-13 02:16:00,
2013-08-12 22:21:00,72.5,70.4,29.95,North,0,0.0,0.0,93,0.00,,,0.00,WUHU216HW,2013-08-13 02:21:00,
2013-08-12 22:26:00,72.5,70.4,29.95,North,0,0.0,0.0,93,0.00,,,0.00,WUHU216HW,2013-08-13 02:26:00,
2013-08-12 22:31:00,72.4,70.2,29.95,North,0,0.0,0.0,93,0.00,,,0.00,WUHU216HW,2013-08-13 02:31:00,
2013-08-12 22:36:00,72.4,70.2,29.95,North,0,0.0,0.0,93,0.00,,,0.00,WUHU216HW,2013-08-13 02:36:00,
2013-08-12 22:41:00,72.4,70.2,29.95,North,0,0.0,0.0,93,0.00,,,0.00,WUHU216HW,2013-08-13 02:41:00,
2013-08-12 22:46:00,72.2,70.0,29.95,North,0,0.0,0.0,93,0.00,,,0.00,WUHU216HW,2013-08-13 02:46:00,
2013-08-12 22:51:00,72.2,70.0,29.95,North,0,0.0,0.0,93,0.00,,,0.00,WUHU216HW,2013-08-13 02:51:00,
2013-08-12 22:56:00,72.0,69.8,29.95,North,0,0.0,0.0,93,0.00,,,0.00,WUHU216HW,2013-08-13 02:56:00,
2013-08-12 23:01:00,72.0,69.8,29.95,North,0,0.0,0.0,93,0.00,,,0.00,WUHU216HW,2013-08-13 03:01:00,
2013-08-12 23:06:00,72.2,70.0,29.95,North,0,0.0,0.0,93,0.00,,,0.00,WUHU216HW,2013-08-13 03:06:00,
2013-08-12 23:11:00,72.2,70.0,29.95,North,0,0.0,0.0,93,0.00,,,0.00,WUHU216HW,2013-08-13 03:11:00,
2013-08-12 23:16:00,72.0,69.8,29.95,North,0,0.0,0.0,93,0.00,,,0.00,WUHU216HW,2013-08-13 03:16:00,
2013-08-12 23:21:00,72.0,69.8,29.95,North,0,0.0,0.0,93,0.00,,,0.00,WUHU216HW,2013-08-13 03:21:00,
2013-08-12 23:26:00,72.0,69.8,29.96,North,0,0.0,0.0,93,0.00,,,0.00,WUHU216HW,2013-08-13 03:26:00,
2013-08-12 23:31:00,71.8,69.7,29.96,North,0,0.0,0.0,93,0.00,,,0.00,WUHU216HW,2013-08-13 03:31:00,
2013-08-12 23:36:00,71.8,69.7,29.96,North,0,0.0,0.0,93,0.00,,,0.00,WUHU216HW,2013-08-13 03:36:00,
2013-08-12 23:41:00,71.8,69.7,29.96,North,0,0.0,0.0,93,0.00,,,0.00,WUHU216HW,2013-08-13 03:41:00,
2013-08-12 23:46:00,71.8,69.7,29.95,North,0,0.0,0.0,93,0.00,,,0.00,WUHU216HW,2013-08-13 03:46:00,
2013-08-12 23:52:00,71.6,69.5,29.95,North,0,0.0,0.0,93,0.00,,,0.00,WUHU216HW,2013-08-13 03:52:00,
2013-08-12 23:57:00,71.6,69.5,29.95,North,0,0.0,0.0,93,0.00,,,0.00,WUHU216HW,2013-08-13 03:57:00,